Miscellaneous Local Product
Issued by NWS Hastings, NE

Home | Current Version | Previous Version | Graphics & Text | Print | Product List | Glossary On
Versions: 1 2 3 4 5 6 7 8 9 10 11 12 13 14 15 16 17 18 19 20 21 22 23 24 25 26 27 28 29 30 31 32 33 34 35 36 37 38 39 40 41 42 43 44 45 46 47 48 49 50
694
AXUS43 KGID 151102
MISGRI

GID CWA HOURLY WEATHER ROUNDUP
NATIONAL WEATHER SERVICE HASTINGS NE
600 AM CDT SUN OCT 15 2017

NOTE: "FAIR" INDICATES FEW OR NO CLOUDS BELOW 12,000 FEET WITH NO
SIGNIFICANT WEATHER AND/OR OBSTRUCTIONS TO VISIBILITY.

...SOUTH CENTRAL NEBRASKA...

CITY           SKY/WX    TMP DP  RH WIND       PRES   REMARKS
GRAND ISLAND   CLEAR     35  35 100 NW7       30.32R WCI  29
HASTINGS       CLEAR     35  32  88 NW6       30.32R WCI  30
KEARNEY        CLEAR     35  32  88 W8        30.34R WCI  29
ORD            CLEAR     34  30  85 NW8       30.31R WCI  27
YORK           CLEAR     36  36 100 NW6       30.30R WCI  31
AURORA         CLEAR     37  34  92 NW6       30.30R WCI  32
LEXINGTON      CLEAR     35  32  89 NW7       30.35R WCI  29
HOLDREGE       CLEAR     35  32  90 NW6       30.34R WCI  30
HEBRON         CLEAR     40  36  83 NW5       30.32R

...NEBRASKA PANHANDLE...

CITY           SKY/WX    TMP DP  RH WIND       PRES   REMARKS
CHADRON        CLEAR     26  22  84 SW8       30.31S WCI  18
ALLIANCE       CLEAR     20  18  92 W7        30.32R WCI  11
SCOTTSBLUFF    CLOUDY    24  20  84 N3        30.35R
SIDNEY         CLOUDY    25  21  85 W10       30.36R WCI  15

...WESTERN AND NORTH CENTRAL NEBRASKA...

CITY           SKY/WX    TMP DP  RH WIND       PRES   REMARKS
VALENTINE      CLEAR     30  27  88 W7        30.30S WCI  23
AINSWORTH      CLEAR     30  30  99 W5        30.31S WCI  25
ONEILL         CLEAR     33  33  99 W7        30.30R WCI  27
BROKEN BOW     CLEAR     34  31  88 NW8       30.32R WCI  27
IMPERIAL       CLEAR     30  26  85 W9        30.39R WCI  22
NORTH PLATTE   CLEAR     28  27  96 W7        30.36R WCI  21
MCCOOK         CLEAR     33  31  92 W10       30.38R WCI  25

...EASTERN NEBRASKA...

CITY           SKY/WX    TMP DP  RH WIND       PRES   REMARKS
NORFOLK        CLEAR     36  34  92 NW9       30.27R WCI  29
SO SIOUX CITY  CLOUDY    41  37  86 NW13      30.24R
TEKAMAH        CLOUDY    46  38  73 NW10      30.24R
COLUMBUS       CLEAR     37  34  89 NW8       30.29R WCI  31
ALBION         CLEAR     36  33  92 NW7       30.29R WCI  30
OMAHA EPPLEY   CLOUDY    47  39  74 NW12      30.24R
OFFUTT AFB     CLOUDY    47  39  74 NW15      30.24R
MILLARD        CLOUDY    48  41  76 NW12      30.25R
LINCOLN        CLEAR     42  34  73 NW14      30.30R
NEBRASKA CITY  CLOUDY    47  42  84 NW14G22   30.25R
BEATRICE       CLEAR     41  37  84 NW9       30.29R
FALLS CITY     CLOUDY    48  40  73 NW12G22   30.23R

...NORTHERN KANSAS...

CITY           SKY/WX    TMP DP  RH WIND       PRES   REMARKS
GOODLAND       CLEAR     29  27  92 W7        30.38R WCI  22
HILL CITY      CLEAR     36  34  92 W8        30.39R WCI  30
NORTON         SUNNY     34  30  86 NW8       30.36S WCI  27
PHILLIPSBURG   CLEAR     36  36 100 W8        30.37R WCI  29
SMITH CENTER   CLEAR     34  32  93 SW6       30.36R WCI  29
HAYS           CLEAR     39  35  86 NW6       30.37R WCI  35
RUSSELL        CLEAR     39  37  92 NW7       30.35R WCI  34
CONCORDIA      CLEAR     41  36  82 NW9       30.32R
SALINA         CLEAR     45  39  79 NW12      30.33R
TOPEKA         CLEAR     47  42  83 NW9       30.26R



USA.gov is the U.S. government's official web portal to all federal, state and local government web resources and services.